SIA12 WSSS-RJAA

Flight info

Callsign SIA12
Flight time N/A
Altitude 35000
Route TOMAN5B TOMAN L625 LUSMO N884 LAXOR/N0491F360 N884 LULBU/N0493F350 N884 LUBAN/N0436F210 TR23 CAB/N0491F350 R597 PIBEM/N0489F370 R597 VIGOR DCT KEITH A339 YOSHI A590 MOE Y81 RUTAS
Aircraft B77W/H-SDE1E2E3FGHIJ2J3J4J5M1RWXY/LB1D1

Departure

Time 2026-05-05 04:15
Airport Singapore Changi Airport (WSSS)

Arrival

Time N/A
Airport Narita International Airport (RJAA)
Time Latitude Longitude Altitude Speed Heading
2026-05-05 04:01 1.35221 103.98379 29 ft 0 kts 112°
2026-05-05 04:03 1.35224 103.98371 29 ft 4 kts 112°
2026-05-05 04:03 1.35234 103.98347 28 ft 4 kts 108°
2026-05-05 04:03 1.35242 103.98322 26 ft 4 kts 112°
2026-05-05 04:03 1.35252 103.98305 27 ft 3 kts 147°
2026-05-05 04:04 1.35272 103.98295 27 ft 4 kts 172°
2026-05-05 04:04 1.35294 103.98297 27 ft 4 kts 202°
2026-05-05 04:04 1.35316 103.98306 27 ft 1 kts 202°
2026-05-05 04:04 1.35320 103.98308 27 ft 0 kts 202°
2026-05-05 04:07 1.35278 103.98291 25 ft 14 kts 202°
2026-05-05 04:07 1.35172 103.98245 29 ft 17 kts 210°
2026-05-05 04:07 1.35118 103.98145 29 ft 17 kts 226°
2026-05-05 04:08 1.35013 103.98094 29 ft 17 kts 203°
2026-05-05 04:08 1.34905 103.98048 29 ft 17 kts 203°
2026-05-05 04:08 1.34798 103.98036 29 ft 17 kts 138°
2026-05-05 04:08 1.34750 103.98143 29 ft 17 kts 113°
2026-05-05 04:09 1.34705 103.98251 29 ft 17 kts 112°
2026-05-05 04:09 1.34659 103.98359 29 ft 17 kts 113°
2026-05-05 04:09 1.34614 103.98467 29 ft 17 kts 113°
2026-05-05 04:09 1.34567 103.98577 29 ft 17 kts 113°
2026-05-05 04:10 1.34521 103.98685 29 ft 17 kts 113°
2026-05-05 04:10 1.34475 103.98795 29 ft 17 kts 113°
2026-05-05 04:10 1.34430 103.98904 29 ft 17 kts 107°
2026-05-05 04:10 1.34501 103.98983 29 ft 17 kts 24°
2026-05-05 04:11 1.34611 103.99030 29 ft 17 kts 22°
2026-05-05 04:11 1.34726 103.99078 29 ft 19 kts 22°
2026-05-05 04:11 1.34857 103.99133 29 ft 22 kts 22°
2026-05-05 04:11 1.35004 103.99195 29 ft 24 kts 23°
2026-05-05 04:12 1.35163 103.99262 29 ft 26 kts 23°
2026-05-05 04:12 1.35337 103.99337 29 ft 28 kts 22°
2026-05-05 04:12 1.35521 103.99413 29 ft 29 kts 22°
2026-05-05 04:12 1.35706 103.99491 29 ft 29 kts 23°
2026-05-05 04:13 1.35890 103.99569 29 ft 29 kts 23°
2026-05-05 04:13 1.36067 103.99644 29 ft 25 kts 23°
2026-05-05 04:13 1.36222 103.99711 29 ft 21 kts 30°
2026-05-05 04:13 1.36223 103.99806 29 ft 15 kts 112°
2026-05-05 04:14 1.36163 103.99878 29 ft 14 kts 175°
2026-05-05 04:14 1.36066 103.99837 29 ft 23 kts 203°
2026-05-05 04:14 1.35751 103.99704 29 ft 84 kts 203°
2026-05-05 04:14 1.35000 103.99388 29 ft 148 kts 203°
2026-05-05 04:15 1.33887 103.98919 89 ft 191 kts 202°
2026-05-05 04:15 1.32650 103.98397 639 ft 195 kts 202°
2026-05-05 04:15 1.31400 103.97862 1312 ft 194 kts 204°
2026-05-05 04:15 1.30152 103.97330 1895 ft 201 kts 203°
2026-05-05 04:16 1.28779 103.96755 2059 ft 227 kts 203°
2026-05-05 04:16 1.27279 103.96124 2387 ft 245 kts 203°
2026-05-05 04:16 1.25667 103.95447 2912 ft 257 kts 203°
2026-05-05 04:16 1.23926 103.94893 3432 ft 266 kts 184°
2026-05-05 04:17 1.22120 103.95267 4052 ft 271 kts 150°
2026-05-05 04:17 1.20658 103.96419 4675 ft 273 kts 138°
2026-05-05 04:17 1.19228 103.97695 5359 ft 276 kts 139°
2026-05-05 04:17 1.17791 103.98960 6051 ft 277 kts 139°
2026-05-05 04:18 1.16291 104.00274 6359 ft 299 kts 139°
2026-05-05 04:18 1.14715 104.01737 6507 ft 318 kts 130°
2026-05-05 04:18 1.13611 104.03713 6646 ft 335 kts 112°
2026-05-05 04:18 1.12716 104.05938 6912 ft 354 kts 112°
2026-05-05 04:19 1.11753 104.08239 7462 ft 363 kts 113°
2026-05-05 04:19 1.10746 104.10574 8121 ft 368 kts 114°
2026-05-05 04:19 1.09717 104.12927 8852 ft 371 kts 114°
2026-05-05 04:19 1.08677 104.15298 9592 ft 373 kts 114°
2026-05-05 04:20 1.07892 104.17768 10102 ft 377 kts 96°
2026-05-05 04:20 1.07933 104.20387 10565 ft 379 kts 86°
2026-05-05 04:20 1.08091 104.23006 11175 ft 383 kts 87°
2026-05-05 04:20 1.08214 104.25672 11983 ft 385 kts 88°
2026-05-05 04:21 1.08319 104.28355 12811 ft 387 kts 88°
2026-05-05 04:21 1.08416 104.31059 13585 ft 391 kts 88°
2026-05-05 04:21 1.08511 104.33791 14247 ft 395 kts 88°
2026-05-05 04:21 1.08607 104.36557 14902 ft 399 kts 88°
2026-05-05 04:22 1.08704 104.39339 15580 ft 402 kts 88°
2026-05-05 04:22 1.08806 104.42110 16227 ft 403 kts 86°
2026-05-05 04:22 1.09359 104.44868 16659 ft 410 kts 68°
2026-05-05 04:22 1.10791 104.47344 17211 ft 416 kts 51°
2026-05-05 04:23 1.12807 104.49416 17777 ft 418 kts 45°
2026-05-05 04:23 1.14923 104.51435 18297 ft 423 kts 44°
2026-05-05 04:23 1.17047 104.53479 18845 ft 426 kts 45°
2026-05-05 04:23 1.19169 104.55563 19409 ft 428 kts 45°
2026-05-05 04:24 1.21291 104.57669 19943 ft 431 kts 46°
2026-05-05 04:24 1.23422 104.59792 20456 ft 434 kts 46°
2026-05-05 04:24 1.25538 104.61897 20944 ft 438 kts 46°
2026-05-05 04:25 1.29901 104.66229 21924 ft 445 kts 46°
2026-05-05 04:25 1.31989 104.68499 22286 ft 444 kts 56°
2026-05-05 04:25 1.33377 104.71271 22572 ft 450 kts 72°
2026-05-05 04:25 1.33951 104.74345 23057 ft 450 kts 87°
2026-05-05 04:26 1.34002 104.77471 23493 ft 452 kts 90°
2026-05-05 04:26 1.34005 104.80642 23839 ft 456 kts 90°
2026-05-05 04:26 1.34036 104.83823 24209 ft 459 kts 89°
2026-05-05 04:26 1.34101 104.86981 24615 ft 461 kts 89°
2026-05-05 04:27 1.34183 104.90193 24987 ft 463 kts 88°
2026-05-05 04:27 1.34266 104.93421 25353 ft 466 kts 89°
2026-05-05 04:27 1.34346 104.96668 25718 ft 469 kts 89°
2026-05-05 04:27 1.34424 104.99933 26065 ft 471 kts 89°
2026-05-05 04:28 1.34502 105.03216 26413 ft 474 kts 89°
2026-05-05 04:28 1.34581 105.06520 26749 ft 477 kts 89°
2026-05-05 04:28 1.34660 105.09842 27099 ft 479 kts 89°
2026-05-05 04:28 1.34740 105.13178 27430 ft 481 kts 89°
2026-05-05 04:29 1.34820 105.16536 27753 ft 484 kts 89°
2026-05-05 04:29 1.34901 105.19904 28064 ft 486 kts 89°
2026-05-05 04:29 1.34981 105.23291 28361 ft 489 kts 89°
2026-05-05 04:29 1.35062 105.26660 28653 ft 491 kts 89°
2026-05-05 04:30 1.35144 105.30079 28930 ft 493 kts 89°
2026-05-05 04:30 1.35225 105.33513 29193 ft 495 kts 89°
2026-05-05 04:30 1.35307 105.36953 29468 ft 496 kts 89°
2026-05-05 04:30 1.35389 105.40402 29769 ft 497 kts 89°
2026-05-05 04:31 1.35472 105.43861 30105 ft 497 kts 89°
2026-05-05 04:31 1.35554 105.47307 30459 ft 495 kts 89°
2026-05-05 04:31 1.35635 105.50738 30814 ft 493 kts 89°
2026-05-05 04:31 1.35717 105.54162 31152 ft 492 kts 89°
2026-05-05 04:32 1.35798 105.57583 31466 ft 492 kts 89°
2026-05-05 04:32 1.35879 105.61004 31803 ft 491 kts 89°
2026-05-05 04:32 1.35960 105.64411 32150 ft 490 kts 89°
2026-05-05 04:32 1.36040 105.67814 32475 ft 489 kts 89°
2026-05-05 04:33 1.36121 105.71208 32812 ft 487 kts 88°
2026-05-05 04:33 1.36569 105.74555 32977 ft 489 kts 73°
2026-05-05 04:33 1.37975 105.77647 33184 ft 492 kts 57°
2026-05-05 04:33 1.40108 105.80268 33500 ft 492 kts 45°
2026-05-05 04:34 1.42789 105.82387 33844 ft 492 kts 31°
2026-05-05 04:34 1.45811 105.83994 34069 ft 493 kts 28°
2026-05-05 04:34 1.48892 105.85512 34257 ft 494 kts 27°
2026-05-05 04:34 1.51975 105.87014 34541 ft 493 kts 27°
2026-05-05 04:35 1.55051 105.88533 34799 ft 492 kts 28°
2026-05-05 04:35 1.61191 105.91652 34868 ft 494 kts 28°
2026-05-05 04:36 1.67273 105.94803 34877 ft 489 kts 28°
2026-05-05 04:36 1.73304 105.97932 34885 ft 488 kts 28°
2026-05-05 04:37 1.79333 106.01054 34887 ft 487 kts 28°
2026-05-05 04:37 1.85317 106.04150 34891 ft 488 kts 28°
2026-05-05 04:38 1.91358 106.07276 34888 ft 489 kts 28°
2026-05-05 04:38 1.97419 106.10412 34887 ft 491 kts 28°
2026-05-05 04:39 2.03495 106.13556 34886 ft 492 kts 28°
2026-05-05 04:39 2.09590 106.16711 34886 ft 493 kts 28°
2026-05-05 04:40 2.15686 106.19867 34887 ft 493 kts 28°
2026-05-05 04:40 2.21746 106.23006 34887 ft 493 kts 28°
2026-05-05 04:41 2.27842 106.26162 34885 ft 493 kts 28°
2026-05-05 04:41 2.32938 106.28802 34885 ft 493 kts 28°
2026-05-05 04:42 2.39023 106.31954 34887 ft 492 kts 28°
2026-05-05 04:42 2.45063 106.35083 34885 ft 492 kts 28°
2026-05-05 04:43 2.51151 106.38238 34889 ft 492 kts 28°
2026-05-05 04:43 2.57236 106.41391 34887 ft 492 kts 28°
2026-05-05 04:44 2.63311 106.44542 34888 ft 492 kts 28°
2026-05-05 04:44 2.69395 106.47701 34886 ft 492 kts 28°
2026-05-05 04:45 2.75443 106.50839 34889 ft 493 kts 28°
2026-05-05 04:45 2.81548 106.53980 34885 ft 493 kts 28°
2026-05-05 04:46 2.87650 106.57123 34884 ft 493 kts 28°
2026-05-05 04:46 2.93716 106.60263 34885 ft 493 kts 28°
2026-05-05 04:47 2.99814 106.63424 34880 ft 493 kts 28°
2026-05-05 04:47 3.05921 106.66589 34882 ft 494 kts 28°
2026-05-05 04:48 3.12028 106.69753 34883 ft 493 kts 28°
2026-05-05 04:48 3.18125 106.72911 34886 ft 493 kts 28°
2026-05-05 04:49 3.24191 106.76055 34884 ft 494 kts 28°
2026-05-05 04:49 3.30295 106.79218 34885 ft 494 kts 28°
2026-05-05 04:50 3.36401 106.82383 34883 ft 494 kts 28°
2026-05-05 04:50 3.42503 106.85548 34884 ft 494 kts 28°
2026-05-05 04:51 3.48607 106.88713 34881 ft 494 kts 28°
2026-05-05 04:51 3.54508 106.92136 34880 ft 492 kts 38°
2026-05-05 04:52 3.59552 106.96721 34882 ft 490 kts 51°
2026-05-05 04:52 3.63827 107.02023 34881 ft 489 kts 53°
2026-05-05 04:53 3.68047 107.07365 34881 ft 488 kts 52°
2026-05-05 04:53 3.72282 107.12668 34877 ft 487 kts 52°
2026-05-05 04:54 3.76496 107.17904 34880 ft 485 kts 51°
2026-05-05 04:54 3.80735 107.23160 34881 ft 484 kts 51°
2026-05-05 04:55 3.84967 107.28410 34878 ft 483 kts 51°
2026-05-05 04:55 3.89189 107.33651 34878 ft 483 kts 51°
2026-05-05 04:56 3.93411 107.38894 34885 ft 483 kts 52°
2026-05-05 04:56 3.97634 107.44140 34880 ft 484 kts 52°
2026-05-05 04:57 4.01864 107.49394 34878 ft 484 kts 52°
2026-05-05 04:57 4.06072 107.54623 34876 ft 485 kts 52°
2026-05-05 04:58 4.10309 107.59888 34880 ft 485 kts 52°
2026-05-05 04:58 4.14542 107.65150 34875 ft 485 kts 52°
2026-05-05 04:59 4.18786 107.70425 34874 ft 485 kts 52°
2026-05-05 04:59 4.23026 107.75697 34874 ft 485 kts 52°
2026-05-05 05:00 4.27234 107.80931 34875 ft 485 kts 52°
2026-05-05 05:00 4.31479 107.86212 34875 ft 485 kts 52°
2026-05-05 05:01 4.35714 107.91481 34872 ft 485 kts 52°
2026-05-05 05:01 4.39951 107.96754 34870 ft 485 kts 52°
2026-05-05 05:02 4.44190 108.02030 34872 ft 485 kts 52°
2026-05-05 05:02 4.48399 108.07270 34873 ft 485 kts 52°
2026-05-05 05:03 4.52641 108.12552 34870 ft 486 kts 52°
2026-05-05 05:03 4.56877 108.17828 34872 ft 486 kts 52°
2026-05-05 05:04 4.61122 108.23117 34868 ft 486 kts 52°
2026-05-05 05:04 4.65359 108.28397 34871 ft 486 kts 52°
2026-05-05 05:05 4.69570 108.33646 34865 ft 486 kts 52°
2026-05-05 05:05 4.73817 108.38938 34869 ft 486 kts 51°
2026-05-05 05:06 4.78081 108.44205 34876 ft 487 kts 51°
2026-05-05 05:06 4.82364 108.49478 34870 ft 487 kts 51°
2026-05-05 05:07 4.86635 108.54745 34866 ft 487 kts 51°
2026-05-05 05:07 4.90889 108.59997 34868 ft 487 kts 51°
2026-05-05 05:08 4.95160 108.65273 34866 ft 487 kts 51°
2026-05-05 05:08 4.99438 108.70560 34868 ft 487 kts 51°
2026-05-05 05:09 5.03708 108.75837 34868 ft 487 kts 51°
2026-05-05 05:09 5.07982 108.81119 34867 ft 487 kts 51°
2026-05-05 05:10 5.12225 108.86366 34869 ft 487 kts 51°
2026-05-05 05:10 5.16496 108.91647 34870 ft 487 kts 51°
2026-05-05 05:11 5.20766 108.96929 34872 ft 487 kts 51°
2026-05-05 05:11 5.25038 109.02214 34868 ft 487 kts 51°
2026-05-05 05:12 5.29306 109.07496 34866 ft 487 kts 51°
2026-05-05 05:12 5.33576 109.12782 34867 ft 487 kts 51°
2026-05-05 05:13 5.37843 109.18065 34868 ft 487 kts 51°
2026-05-05 05:13 5.42082 109.23314 34866 ft 487 kts 51°
2026-05-05 05:14 5.46350 109.28601 34864 ft 487 kts 51°
2026-05-05 05:14 5.50622 109.33894 34866 ft 488 kts 51°
2026-05-05 05:15 5.54889 109.39183 34867 ft 488 kts 51°
2026-05-05 05:15 5.59162 109.44480 34866 ft 488 kts 51°
2026-05-05 05:16 5.63438 109.49782 34866 ft 488 kts 51°
2026-05-05 05:16 5.67708 109.55078 34862 ft 488 kts 51°
2026-05-05 05:17 5.71979 109.60378 34860 ft 488 kts 51°
2026-05-05 05:17 5.76226 109.65647 34862 ft 488 kts 51°
2026-05-05 05:18 5.80494 109.70945 34861 ft 488 kts 51°
2026-05-05 05:18 5.84762 109.76245 34866 ft 488 kts 51°
2026-05-05 05:19 5.89026 109.81541 34866 ft 487 kts 51°
2026-05-05 05:19 5.93295 109.86844 34865 ft 487 kts 51°
2026-05-05 05:20 5.97553 109.92136 34864 ft 487 kts 51°
2026-05-05 05:20 6.01814 109.97433 34863 ft 487 kts 51°
2026-05-05 05:21 6.06079 110.02735 34863 ft 487 kts 51°
2026-05-05 05:21 6.10342 110.08037 34860 ft 487 kts 51°
2026-05-05 05:22 6.14604 110.13338 34861 ft 487 kts 51°
2026-05-05 05:22 6.18839 110.18609 34859 ft 487 kts 51°
2026-05-05 05:23 6.23097 110.23908 34859 ft 487 kts 51°
2026-05-05 05:23 6.27351 110.29206 34858 ft 487 kts 51°
2026-05-05 05:24 6.31599 110.34496 34859 ft 486 kts 51°
2026-05-05 05:24 6.35839 110.39779 34860 ft 486 kts 51°
2026-05-05 05:25 6.40094 110.45081 34858 ft 486 kts 51°
2026-05-05 05:25 6.44338 110.50372 34858 ft 486 kts 51°
2026-05-05 05:26 6.48578 110.55659 34860 ft 486 kts 51°
2026-05-05 05:26 6.52822 110.60952 34864 ft 486 kts 51°
2026-05-05 05:27 6.57065 110.66246 34858 ft 486 kts 51°
2026-05-05 05:27 6.63397 110.74148 34861 ft 486 kts 51°
2026-05-05 05:28 6.67639 110.79445 34861 ft 486 kts 51°
2026-05-05 05:28 6.71881 110.84744 34861 ft 486 kts 51°
2026-05-05 05:29 6.75404 110.89145 34862 ft 486 kts 51°
2026-05-05 05:29 6.80362 110.95341 34860 ft 486 kts 51°
2026-05-05 05:30 6.83890 110.99751 34863 ft 486 kts 51°
2026-05-05 05:30 6.88823 111.05920 34860 ft 486 kts 51°
2026-05-05 05:31 6.92378 111.10368 34859 ft 486 kts 51°
2026-05-05 05:31 6.96619 111.15674 34860 ft 486 kts 51°
2026-05-05 05:32 7.00835 111.20952 34857 ft 486 kts 51°
2026-05-05 05:32 7.05074 111.26260 34862 ft 486 kts 51°
2026-05-05 05:33 7.09310 111.31566 34865 ft 486 kts 51°
2026-05-05 05:33 7.13554 111.36883 34865 ft 486 kts 51°
2026-05-05 05:34 7.17793 111.42197 34869 ft 486 kts 51°
2026-05-05 05:34 7.22026 111.47505 34864 ft 486 kts 51°
2026-05-05 05:35 7.26236 111.52787 34863 ft 486 kts 51°
2026-05-05 05:35 7.30460 111.58098 34867 ft 486 kts 52°
2026-05-05 05:36 7.34677 111.63434 34860 ft 486 kts 52°
2026-05-05 05:36 7.38886 111.68767 34862 ft 486 kts 52°
2026-05-05 05:37 7.43091 111.74092 34860 ft 486 kts 52°
2026-05-05 05:37 7.47289 111.79409 34862 ft 486 kts 52°
2026-05-05 05:38 7.51499 111.84742 34861 ft 486 kts 52°
2026-05-05 05:38 7.55708 111.90075 34861 ft 486 kts 52°
2026-05-05 05:39 7.59926 111.95422 34862 ft 486 kts 52°
2026-05-05 05:39 7.64105 112.00722 34866 ft 486 kts 52°
2026-05-05 05:40 7.68319 112.06068 34863 ft 486 kts 52°
2026-05-05 05:40 7.72525 112.11405 34866 ft 486 kts 52°
2026-05-05 05:41 7.76727 112.16739 34864 ft 485 kts 52°
2026-05-05 05:41 7.80929 112.22075 34859 ft 485 kts 52°
2026-05-05 05:42 7.85128 112.27410 34864 ft 485 kts 52°
2026-05-05 05:42 7.89323 112.32741 34865 ft 485 kts 52°
2026-05-05 05:43 7.93495 112.38045 34862 ft 485 kts 52°
2026-05-05 05:43 7.97687 112.43377 34863 ft 485 kts 52°
2026-05-05 05:44 8.01877 112.48707 34861 ft 485 kts 52°
2026-05-05 05:44 8.06070 112.54043 34864 ft 485 kts 52°
2026-05-05 05:45 8.10266 112.59385 34858 ft 485 kts 52°
2026-05-05 05:45 8.14456 112.64722 34860 ft 485 kts 52°
2026-05-05 05:46 8.18638 112.70050 34863 ft 484 kts 52°
2026-05-05 05:46 8.22825 112.75386 34859 ft 484 kts 52°
2026-05-05 05:47 8.27008 112.80720 34862 ft 484 kts 52°
2026-05-05 05:47 8.31165 112.86023 34859 ft 485 kts 52°
2026-05-05 05:48 8.35353 112.91368 34860 ft 485 kts 52°
2026-05-05 05:48 8.39544 112.96718 34859 ft 485 kts 52°
2026-05-05 05:49 8.43735 113.02069 34862 ft 485 kts 52°
2026-05-05 05:49 8.47898 113.07388 34863 ft 486 kts 52°
2026-05-05 05:50 8.52112 113.12774 34860 ft 486 kts 52°
2026-05-05 05:50 8.56284 113.18108 34860 ft 486 kts 52°
2026-05-05 05:51 8.60482 113.23477 34862 ft 486 kts 52°
2026-05-05 05:51 8.64672 113.28839 34860 ft 486 kts 52°
2026-05-05 05:52 8.68867 113.34208 34859 ft 486 kts 52°
2026-05-05 05:52 8.73033 113.39544 34859 ft 486 kts 52°
2026-05-05 05:53 8.77226 113.44916 34861 ft 486 kts 52°
2026-05-05 05:53 8.81414 113.50282 34865 ft 486 kts 52°
2026-05-05 05:54 8.85607 113.55660 34864 ft 486 kts 52°
2026-05-05 05:54 8.89797 113.61034 34867 ft 487 kts 52°
2026-05-05 05:55 8.93990 113.66415 34862 ft 487 kts 52°
2026-05-05 05:55 8.98165 113.71773 34864 ft 487 kts 52°
2026-05-05 05:56 9.02377 113.77183 34863 ft 488 kts 52°
2026-05-05 05:56 9.06560 113.82558 34864 ft 488 kts 52°
2026-05-05 05:57 9.10767 113.87966 34863 ft 488 kts 52°
2026-05-05 05:57 9.14967 113.93366 34864 ft 488 kts 52°
2026-05-05 05:58 9.19151 113.98749 34861 ft 488 kts 52°
2026-05-05 05:58 9.23365 114.04173 34866 ft 488 kts 52°
2026-05-05 05:59 9.27533 114.09539 34861 ft 487 kts 52°
2026-05-05 05:59 9.31736 114.14953 34865 ft 487 kts 52°
2026-05-05 06:00 9.35903 114.20323 34860 ft 486 kts 52°
2026-05-05 06:00 9.40062 114.25685 34862 ft 486 kts 52°
2026-05-05 06:01 9.44252 114.31089 34863 ft 486 kts 52°
2026-05-05 06:01 9.48414 114.36461 34866 ft 486 kts 52°
2026-05-05 06:02 9.52593 114.41855 34862 ft 486 kts 52°
2026-05-05 06:02 9.56786 114.47271 34866 ft 486 kts 52°
2026-05-05 06:03 9.60944 114.52644 34864 ft 486 kts 52°
2026-05-05 06:03 9.65132 114.58057 34867 ft 487 kts 52°
2026-05-05 06:04 9.69289 114.63434 34863 ft 487 kts 52°
2026-05-05 06:04 9.73475 114.68850 34862 ft 487 kts 52°
2026-05-05 06:05 9.77648 114.74254 34865 ft 487 kts 52°
2026-05-05 06:05 9.81825 114.79664 34870 ft 487 kts 52°
2026-05-05 06:06 9.85985 114.85037 34867 ft 487 kts 52°
2026-05-05 06:06 9.90172 114.90426 34861 ft 487 kts 52°
2026-05-05 06:07 9.94382 114.95847 34863 ft 488 kts 52°
2026-05-05 06:07 9.98582 115.01263 34866 ft 488 kts 52°
2026-05-05 06:08 10.02764 115.06660 34865 ft 488 kts 52°
2026-05-05 06:08 10.06966 115.12086 34862 ft 489 kts 52°
2026-05-05 06:09 10.11153 115.17495 34863 ft 489 kts 52°
2026-05-05 06:09 10.15347 115.22915 34864 ft 491 kts 52°
2026-05-05 06:10 10.19585 115.28394 34864 ft 492 kts 52°
2026-05-05 06:10 10.23801 115.33847 34862 ft 493 kts 52°
2026-05-05 06:11 10.28034 115.39326 34866 ft 494 kts 52°
2026-05-05 06:11 10.32297 115.44846 34864 ft 495 kts 52°
2026-05-05 06:12 10.36531 115.50331 34863 ft 495 kts 52°
2026-05-05 06:12 10.40776 115.55832 34863 ft 495 kts 52°
2026-05-05 06:13 10.45029 115.61347 34862 ft 494 kts 51°
2026-05-05 06:13 10.49280 115.66862 34863 ft 494 kts 51°
2026-05-05 06:14 10.53499 115.72339 34862 ft 493 kts 51°
2026-05-05 06:14 10.57712 115.77811 34860 ft 493 kts 51°
2026-05-05 06:15 10.61954 115.83322 34861 ft 493 kts 51°
2026-05-05 06:15 10.66163 115.88793 34860 ft 493 kts 51°
2026-05-05 06:16 10.70392 115.94295 34861 ft 493 kts 51°
2026-05-05 06:16 10.74598 115.99768 34859 ft 493 kts 51°
2026-05-05 06:17 10.78810 116.05252 34858 ft 493 kts 51°
2026-05-05 06:17 10.83047 116.10770 34860 ft 493 kts 51°
2026-05-05 06:18 10.86563 116.15352 34861 ft 493 kts 51°
2026-05-05 06:18 10.90789 116.20862 34860 ft 493 kts 51°
2026-05-05 06:19 10.94986 116.26337 34860 ft 493 kts 51°
2026-05-05 06:19 10.99208 116.31848 34862 ft 493 kts 51°
2026-05-05 06:20 11.03439 116.37376 34859 ft 493 kts 51°
2026-05-05 06:20 11.07630 116.42851 34863 ft 493 kts 51°
2026-05-05 06:21 11.11851 116.48369 34856 ft 493 kts 51°
2026-05-05 06:21 11.16060 116.53875 34858 ft 493 kts 51°
2026-05-05 06:22 11.20287 116.59404 34858 ft 493 kts 51°
2026-05-05 06:22 11.24491 116.64907 34858 ft 494 kts 51°
2026-05-05 06:23 11.28719 116.70444 34859 ft 494 kts 51°
2026-05-05 06:23 11.32908 116.75936 34858 ft 494 kts 51°
2026-05-05 06:24 11.37134 116.81478 34857 ft 494 kts 51°
2026-05-05 06:24 11.41354 116.87016 34858 ft 494 kts 51°
2026-05-05 06:25 11.45545 116.92519 34856 ft 494 kts 51°
2026-05-05 06:25 11.49762 116.98058 34858 ft 494 kts 51°
2026-05-05 06:26 11.53959 117.03575 34859 ft 493 kts 51°
2026-05-05 06:26 11.58175 117.09119 34858 ft 493 kts 51°
2026-05-05 06:27 11.64472 117.17406 34858 ft 493 kts 51°
2026-05-05 06:28 11.68659 117.22920 34858 ft 493 kts 51°
2026-05-05 06:28 11.72869 117.28467 34856 ft 493 kts 51°
2026-05-05 06:29 11.77058 117.33989 34857 ft 493 kts 51°
2026-05-05 06:29 11.81236 117.39501 34858 ft 493 kts 51°
2026-05-05 06:30 11.85447 117.45058 34861 ft 493 kts 51°
2026-05-05 06:30 11.89621 117.50571 34856 ft 493 kts 51°
2026-05-05 06:31 11.93820 117.56119 34861 ft 492 kts 51°
2026-05-05 06:31 11.97998 117.61642 34858 ft 493 kts 51°
2026-05-05 06:32 12.02188 117.67186 34859 ft 493 kts 51°
2026-05-05 06:32 12.06364 117.72713 34858 ft 493 kts 51°
2026-05-05 06:33 12.10570 117.78283 34858 ft 493 kts 51°
2026-05-05 06:33 12.14734 117.83800 34858 ft 493 kts 51°
2026-05-05 06:34 12.18926 117.89359 34858 ft 493 kts 51°
2026-05-05 06:34 12.23117 117.94919 34856 ft 493 kts 51°
2026-05-05 06:35 12.27290 118.00458 34858 ft 493 kts 51°
2026-05-05 06:35 12.31488 118.06035 34858 ft 493 kts 51°
2026-05-05 06:36 12.35653 118.11570 34853 ft 493 kts 51°
2026-05-05 06:36 12.39836 118.17132 34851 ft 494 kts 51°
2026-05-05 06:37 12.44033 118.22716 34853 ft 494 kts 51°
2026-05-05 06:37 12.48214 118.28283 34854 ft 494 kts 51°
2026-05-05 06:38 12.52419 118.33884 34853 ft 495 kts 51°
2026-05-05 06:38 12.56594 118.39449 34852 ft 495 kts 51°
2026-05-05 06:39 12.60789 118.45044 34852 ft 495 kts 52°
2026-05-05 06:39 12.64960 118.50612 34852 ft 495 kts 52°
2026-05-05 06:40 12.69150 118.56207 34852 ft 496 kts 52°
2026-05-05 06:40 12.73359 118.61830 34850 ft 496 kts 52°
2026-05-05 06:41 12.77542 118.67424 34855 ft 497 kts 52°
2026-05-05 06:41 12.81758 118.73064 34853 ft 497 kts 52°
2026-05-05 06:42 12.85947 118.78672 34853 ft 498 kts 52°
2026-05-05 06:42 12.90169 118.84328 34851 ft 498 kts 52°
2026-05-05 06:43 12.94386 118.89982 34851 ft 499 kts 52°
2026-05-05 06:43 12.98583 118.95611 34849 ft 499 kts 52°
2026-05-05 06:44 13.02807 119.01276 34847 ft 499 kts 52°
2026-05-05 06:44 13.07072 119.06907 34845 ft 500 kts 51°
2026-05-05 06:45 13.11335 119.12503 34845 ft 500 kts 51°
2026-05-05 06:45 13.15597 119.18111 34847 ft 500 kts 51°
2026-05-05 06:46 13.19883 119.23766 34847 ft 500 kts 52°
2026-05-05 06:46 13.24143 119.29393 34846 ft 500 kts 52°
2026-05-05 06:47 13.28398 119.35016 34845 ft 501 kts 52°
2026-05-05 06:47 13.32677 119.40674 34846 ft 501 kts 51°
2026-05-05 06:48 13.36959 119.46340 34847 ft 501 kts 51°
2026-05-05 06:48 13.41220 119.51980 34846 ft 502 kts 51°
2026-05-05 06:49 13.45506 119.57660 34849 ft 502 kts 52°
2026-05-05 06:49 13.49757 119.63295 34846 ft 502 kts 52°
2026-05-05 06:50 13.54051 119.68992 34844 ft 502 kts 52°
2026-05-05 06:50 13.58306 119.74640 34840 ft 502 kts 52°
2026-05-05 06:51 13.62595 119.80338 34838 ft 502 kts 52°
2026-05-05 06:51 13.66862 119.86009 34837 ft 502 kts 52°
2026-05-05 06:52 13.71149 119.91712 34835 ft 502 kts 52°
2026-05-05 06:52 13.75407 119.97380 34836 ft 502 kts 52°
2026-05-05 06:53 13.79671 120.03061 34834 ft 503 kts 52°
2026-05-05 06:53 13.84105 120.08587 34830 ft 502 kts 43°
2026-05-05 06:54 13.89528 120.13080 34834 ft 500 kts 31°
2026-05-05 06:54 13.95637 120.16551 34839 ft 500 kts 26°
2026-05-05 06:55 14.01766 120.19886 34832 ft 500 kts 27°
2026-05-05 06:55 14.07879 120.23286 34837 ft 501 kts 27°
2026-05-05 06:56 14.14020 120.26739 34838 ft 501 kts 27°
2026-05-05 06:56 14.20121 120.30169 34840 ft 501 kts 27°
2026-05-05 06:57 14.26268 120.33620 34845 ft 501 kts 27°
2026-05-05 06:57 14.32359 120.37034 34846 ft 501 kts 27°
2026-05-05 06:58 14.38494 120.40476 34849 ft 501 kts 27°
2026-05-05 06:58 14.44631 120.43923 34854 ft 501 kts 27°
2026-05-05 06:59 14.50738 120.47340 34855 ft 501 kts 27°
2026-05-05 06:59 14.56890 120.50760 34863 ft 501 kts 27°
2026-05-05 07:00 14.62977 120.54189 34875 ft 500 kts 27°
2026-05-05 07:00 14.69102 120.57654 34870 ft 500 kts 27°
2026-05-05 07:01 14.75163 120.61092 34872 ft 500 kts 27°
2026-05-05 07:01 14.81258 120.64553 34870 ft 500 kts 27°
2026-05-05 07:02 14.87391 120.68009 34876 ft 500 kts 26°
2026-05-05 07:02 14.93490 120.71409 34882 ft 500 kts 27°
2026-05-05 07:03 14.99615 120.74861 34884 ft 501 kts 27°
2026-05-05 07:03 15.05707 120.78333 34884 ft 501 kts 27°
2026-05-05 07:04 15.11844 120.81824 34883 ft 501 kts 27°
2026-05-05 07:04 15.17937 120.85271 34884 ft 502 kts 26°
2026-05-05 07:05 15.24088 120.88742 34874 ft 502 kts 26°
2026-05-05 07:05 15.30201 120.92200 34879 ft 503 kts 26°
2026-05-05 07:06 15.36357 120.95686 34885 ft 503 kts 26°
2026-05-05 07:06 15.42481 120.99156 35182 ft 504 kts 26°
2026-05-05 07:06 15.45462 121.01083 35573 ft 503 kts 36°
2026-05-05 07:07 15.48104 121.03479 35910 ft 504 kts 44°
2026-05-05 07:07 15.50385 121.06191 36207 ft 504 kts 52°
2026-05-05 07:07 15.52292 121.09245 36507 ft 504 kts 59°
2026-05-05 07:07 15.54063 121.12411 36767 ft 505 kts 59°
2026-05-05 07:08 15.55792 121.15562 36832 ft 508 kts 60°
2026-05-05 07:08 15.59286 121.21910 36894 ft 506 kts 59°
2026-05-05 07:09 15.62248 121.27198 36907 ft 504 kts 59°
2026-05-05 07:09 15.65774 121.33435 36908 ft 503 kts 59°
2026-05-05 07:10 15.69322 121.39702 36920 ft 502 kts 59°
2026-05-05 07:10 15.72838 121.45921 36922 ft 502 kts 59°
2026-05-05 07:11 15.76375 121.52189 36927 ft 503 kts 59°
2026-05-05 07:11 15.79917 121.58474 36926 ft 505 kts 59°
2026-05-05 07:12 15.83472 121.64787 36928 ft 506 kts 59°
2026-05-05 07:12 15.87013 121.71080 36919 ft 507 kts 59°
2026-05-05 07:13 15.90576 121.77417 36913 ft 508 kts 59°
2026-05-05 07:13 15.94148 121.83776 36909 ft 508 kts 59°
2026-05-05 07:14 15.97703 121.90110 36904 ft 509 kts 59°
2026-05-05 07:14 16.01267 121.96467 36907 ft 509 kts 59°
2026-05-05 07:15 16.04817 122.02803 36904 ft 509 kts 59°
2026-05-05 07:15 16.08388 122.09184 36904 ft 508 kts 59°
2026-05-05 07:16 16.11928 122.15513 36906 ft 508 kts 59°
2026-05-05 07:16 16.15487 122.21884 36905 ft 508 kts 59°
2026-05-05 07:17 16.19023 122.28217 36903 ft 508 kts 59°
2026-05-05 07:17 16.22577 122.34590 36901 ft 508 kts 59°
2026-05-05 07:18 16.26114 122.40936 36902 ft 508 kts 59°
2026-05-05 07:18 16.29647 122.47283 36904 ft 509 kts 59°
2026-05-05 07:19 16.33201 122.53674 36902 ft 509 kts 59°
2026-05-05 07:19 16.36754 122.60068 36905 ft 509 kts 59°
2026-05-05 07:20 16.40289 122.66435 36899 ft 510 kts 59°
2026-05-05 07:20 16.43848 122.72844 36899 ft 510 kts 59°
2026-05-05 07:21 16.47391 122.79225 36898 ft 511 kts 59°
2026-05-05 07:21 16.50947 122.85635 36899 ft 511 kts 59°
2026-05-05 07:22 16.54508 122.92064 36900 ft 511 kts 59°
2026-05-05 07:22 16.58047 122.98459 36901 ft 511 kts 59°
2026-05-05 07:23 16.61611 123.04904 36897 ft 511 kts 59°
2026-05-05 07:23 16.65143 123.11298 36897 ft 512 kts 59°
2026-05-05 07:24 16.68704 123.17749 36901 ft 512 kts 59°
2026-05-05 07:24 16.72236 123.24156 36899 ft 512 kts 59°
2026-05-05 07:25 16.75797 123.30620 36898 ft 512 kts 59°
2026-05-05 07:25 16.79326 123.37032 36894 ft 512 kts 59°
2026-05-05 07:26 16.82881 123.43498 36899 ft 512 kts 59°
2026-05-05 07:26 16.86425 123.49948 36900 ft 513 kts 59°
2026-05-05 07:27 16.89973 123.56414 36900 ft 513 kts 59°
2026-05-05 07:27 16.93520 123.62882 36901 ft 513 kts 59°
2026-05-05 07:28 16.97046 123.69319 36898 ft 513 kts 59°
2026-05-05 07:28 17.00594 123.75803 36904 ft 513 kts 59°
2026-05-05 07:29 17.04136 123.82282 36899 ft 514 kts 59°
2026-05-05 07:29 17.07682 123.88774 36896 ft 514 kts 59°
2026-05-05 07:30 17.11220 123.95258 36899 ft 514 kts 59°
2026-05-05 07:30 17.16535 124.05010 36901 ft 514 kts 59°
2026-05-05 07:31 17.20071 124.11507 36903 ft 514 kts 59°
2026-05-05 07:31 17.23587 124.17971 36899 ft 514 kts 59°
2026-05-05 07:32 17.27130 124.24494 36903 ft 515 kts 59°
2026-05-05 07:32 17.30667 124.31012 36902 ft 515 kts 59°
2026-05-05 07:33 17.34183 124.37497 36901 ft 515 kts 59°
2026-05-05 07:33 17.37594 124.44092 36903 ft 516 kts 65°
2026-05-05 07:34 17.40292 124.51050 36907 ft 516 kts 68°
2026-05-05 07:34 17.42887 124.58064 36902 ft 516 kts 68°
2026-05-05 07:35 17.45504 124.65070 36907 ft 517 kts 68°
2026-05-05 07:35 17.48149 124.72069 36902 ft 517 kts 68°
2026-05-05 07:36 17.50802 124.79069 36899 ft 517 kts 67°
2026-05-05 07:36 17.53455 124.86074 36907 ft 517 kts 67°
2026-05-05 07:37 17.56101 124.93078 36906 ft 517 kts 68°
2026-05-05 07:37 17.58728 125.00043 36908 ft 517 kts 68°
2026-05-05 07:38 17.61368 125.07050 36909 ft 517 kts 68°
2026-05-05 07:38 17.64010 125.14074 36908 ft 517 kts 68°
2026-05-05 07:39 17.66645 125.21084 36907 ft 517 kts 68°
2026-05-05 07:39 17.69280 125.28105 36907 ft 517 kts 68°
2026-05-05 07:40 17.71916 125.35136 36903 ft 517 kts 68°
2026-05-05 07:40 17.74546 125.42161 36910 ft 517 kts 68°
2026-05-05 07:41 17.77172 125.49184 36910 ft 517 kts 68°
2026-05-05 07:41 17.79799 125.56217 36908 ft 517 kts 68°
2026-05-05 07:42 17.82404 125.63200 36906 ft 517 kts 68°
2026-05-05 07:42 17.85023 125.70231 36911 ft 517 kts 68°
2026-05-05 07:43 17.87642 125.77269 36912 ft 517 kts 68°
2026-05-05 07:43 17.90259 125.84312 36905 ft 517 kts 68°
2026-05-05 07:44 17.92872 125.91351 36914 ft 517 kts 68°
2026-05-05 07:44 17.95482 125.98392 36912 ft 517 kts 68°
2026-05-05 07:45 17.98088 126.05432 36914 ft 517 kts 68°
2026-05-05 07:45 18.00695 126.12484 36912 ft 517 kts 68°
2026-05-05 07:46 18.03296 126.19527 36913 ft 517 kts 68°
2026-05-05 07:46 18.05897 126.26580 36914 ft 517 kts 68°
2026-05-05 07:47 18.08496 126.33636 36917 ft 517 kts 68°
2026-05-05 07:47 18.11088 126.40684 36918 ft 517 kts 68°
2026-05-05 07:48 18.13666 126.47702 36917 ft 517 kts 68°
2026-05-05 07:48 18.16254 126.54756 36917 ft 517 kts 68°
2026-05-05 07:49 18.18840 126.61813 36920 ft 517 kts 68°
2026-05-05 07:49 18.21428 126.68885 36916 ft 517 kts 68°
2026-05-05 07:50 18.24015 126.75961 36915 ft 517 kts 68°
2026-05-05 07:50 18.26576 126.82977 36922 ft 517 kts 68°
2026-05-05 07:51 18.29151 126.90043 36920 ft 517 kts 68°
2026-05-05 07:51 18.31725 126.97113 36922 ft 517 kts 68°
2026-05-05 07:52 18.34295 127.04183 36917 ft 517 kts 68°
2026-05-05 07:52 18.36868 127.11267 36920 ft 517 kts 68°
2026-05-05 07:53 18.39435 127.18347 36920 ft 517 kts 68°
2026-05-05 07:53 18.41997 127.25421 36921 ft 517 kts 68°
2026-05-05 07:54 18.44543 127.32459 36921 ft 517 kts 68°
2026-05-05 07:54 18.47097 127.39532 36922 ft 517 kts 68°
2026-05-05 07:55 18.49653 127.46619 36907 ft 517 kts 68°
2026-05-05 07:55 18.52206 127.53703 36922 ft 517 kts 68°
2026-05-05 07:56 18.54757 127.60794 36920 ft 517 kts 68°
2026-05-05 07:56 18.57306 127.67889 36923 ft 517 kts 68°
2026-05-05 07:57 18.59835 127.74940 36926 ft 517 kts 68°
2026-05-05 07:57 18.61950 127.80840 36918 ft 517 kts 68°
2026-05-05 07:58 18.64487 127.87930 36924 ft 517 kts 68°
2026-05-05 07:58 18.67025 127.95030 36925 ft 517 kts 68°
2026-05-05 07:59 18.69559 128.02129 36923 ft 517 kts 68°
2026-05-05 07:59 18.72087 128.09220 36926 ft 517 kts 68°
2026-05-05 08:00 18.74616 128.16324 36928 ft 517 kts 68°
2026-05-05 08:00 18.77141 128.23426 36921 ft 517 kts 68°
2026-05-05 08:01 18.79648 128.30490 36929 ft 517 kts 68°
2026-05-05 08:01 18.82166 128.37592 36933 ft 517 kts 68°
2026-05-05 08:02 18.84685 128.44705 36915 ft 517 kts 68°
2026-05-05 08:02 18.87203 128.51828 36914 ft 517 kts 68°
2026-05-05 08:03 18.89717 128.58948 36931 ft 517 kts 68°
2026-05-05 08:03 18.92230 128.66074 36936 ft 517 kts 68°
2026-05-05 08:04 18.94740 128.73202 36934 ft 518 kts 68°
2026-05-05 08:04 18.97230 128.80284 36920 ft 518 kts 68°
2026-05-05 08:05 18.99734 128.87416 36933 ft 518 kts 68°
2026-05-05 08:05 19.02237 128.94555 36929 ft 518 kts 68°
2026-05-05 08:06 19.04736 129.01693 36917 ft 518 kts 68°
2026-05-05 08:06 19.07234 129.08836 36918 ft 518 kts 68°
2026-05-05 08:07 19.09726 129.15973 36928 ft 517 kts 68°
2026-05-05 08:07 19.12199 129.23066 36936 ft 517 kts 68°
2026-05-05 08:08 19.14685 129.30206 36923 ft 517 kts 68°
2026-05-05 08:08 19.17168 129.37347 36925 ft 517 kts 68°
2026-05-05 08:09 19.19646 129.44482 36926 ft 516 kts 68°
2026-05-05 08:09 19.22117 129.51609 36942 ft 516 kts 68°
2026-05-05 08:10 19.24588 129.58746 36941 ft 516 kts 68°
2026-05-05 08:10 19.27054 129.65879 36926 ft 516 kts 68°
2026-05-05 08:11 19.29501 129.72967 36929 ft 516 kts 68°
2026-05-05 08:11 19.31960 129.80100 36928 ft 516 kts 68°
2026-05-05 08:12 19.34417 129.87238 36944 ft 515 kts 68°
2026-05-05 08:12 19.36868 129.94365 36925 ft 516 kts 68°
2026-05-05 08:13 19.39317 130.01501 36929 ft 516 kts 68°
2026-05-05 08:13 19.41767 130.08647 36951 ft 515 kts 68°
2026-05-05 08:14 19.44210 130.15785 36931 ft 515 kts 68°
2026-05-05 08:14 19.46654 130.22934 36929 ft 515 kts 68°
2026-05-05 08:15 19.49073 130.30022 36932 ft 515 kts 68°
2026-05-05 08:15 19.51510 130.37173 36938 ft 515 kts 68°
2026-05-05 08:16 19.53941 130.44317 36936 ft 515 kts 69°
2026-05-05 08:16 19.56367 130.51456 36936 ft 515 kts 69°
2026-05-05 08:17 19.58794 130.58608 36935 ft 515 kts 69°
2026-05-05 08:17 19.61199 130.65706 36940 ft 514 kts 69°
2026-05-05 08:18 19.63617 130.72853 36940 ft 514 kts 69°
2026-05-05 08:18 19.66037 130.80017 36947 ft 514 kts 69°
2026-05-05 08:19 19.68451 130.87171 36944 ft 514 kts 69°
2026-05-05 08:19 19.70845 130.94278 36943 ft 514 kts 69°
2026-05-05 08:20 19.73251 131.01433 36946 ft 514 kts 69°
2026-05-05 08:20 19.75653 131.08584 36943 ft 514 kts 69°
2026-05-05 08:21 19.78049 131.15729 36943 ft 514 kts 69°
2026-05-05 08:21 19.80441 131.22871 36943 ft 513 kts 69°
2026-05-05 08:22 19.82822 131.29991 36943 ft 513 kts 69°
2026-05-05 08:22 19.85212 131.37151 36944 ft 513 kts 69°
2026-05-05 08:23 19.87587 131.44274 36947 ft 513 kts 69°
2026-05-05 08:23 19.89971 131.51438 36943 ft 513 kts 69°
2026-05-05 08:24 19.92353 131.58605 36948 ft 513 kts 69°
2026-05-05 08:24 19.94714 131.65718 36951 ft 513 kts 69°
2026-05-05 08:25 19.97087 131.72879 36951 ft 513 kts 69°
2026-05-05 08:25 19.99457 131.80042 36951 ft 513 kts 69°
2026-05-05 08:26 20.01822 131.87203 36952 ft 513 kts 69°
2026-05-05 08:26 20.04184 131.94364 36953 ft 513 kts 69°
2026-05-05 08:27 20.06547 132.01537 36953 ft 513 kts 69°
2026-05-05 08:27 20.08904 132.08703 36955 ft 513 kts 69°
2026-05-05 08:28 20.11254 132.15862 36955 ft 513 kts 69°
2026-05-05 08:28 20.13604 132.23030 36956 ft 513 kts 69°
2026-05-05 08:29 20.15936 132.30152 36960 ft 512 kts 69°
2026-05-05 08:30 20.19451 132.40911 36957 ft 512 kts 69°
2026-05-05 08:30 20.21777 132.48042 36960 ft 512 kts 69°
2026-05-05 08:31 20.24113 132.55219 36960 ft 512 kts 69°
2026-05-05 08:31 20.26446 132.62394 36960 ft 511 kts 69°
2026-05-05 08:32 20.28757 132.69516 36957 ft 511 kts 69°
2026-05-05 08:32 20.31085 132.76699 36966 ft 511 kts 69°
2026-05-05 08:33 20.33393 132.83830 36961 ft 511 kts 70°
2026-05-05 08:33 20.35706 132.90991 36963 ft 510 kts 70°
2026-05-05 08:34 20.38003 132.98112 36961 ft 510 kts 70°
2026-05-05 08:34 20.40317 133.05296 36967 ft 510 kts 70°
2026-05-05 08:35 20.42605 133.12412 36971 ft 510 kts 70°
2026-05-05 08:35 20.44910 133.19591 36969 ft 510 kts 70°
2026-05-05 08:36 20.47197 133.26722 36969 ft 510 kts 70°
2026-05-05 08:36 20.49486 133.33875 36968 ft 509 kts 70°
2026-05-05 08:37 20.51778 133.41048 36969 ft 509 kts 70°
2026-05-05 08:37 20.54057 133.48193 36969 ft 509 kts 70°
2026-05-05 08:38 20.56332 133.55334 36972 ft 509 kts 70°
2026-05-05 08:38 20.58609 133.62495 36974 ft 509 kts 70°
2026-05-05 08:39 20.60867 133.69604 36971 ft 509 kts 70°
2026-05-05 08:39 20.63134 133.76755 36974 ft 508 kts 70°
2026-05-05 08:40 20.65397 133.83906 36974 ft 508 kts 70°
2026-05-05 08:40 20.67657 133.91058 36980 ft 508 kts 70°
2026-05-05 08:41 20.69917 133.98219 36980 ft 508 kts 70°
2026-05-05 08:41 20.72170 134.05373 36974 ft 507 kts 70°
2026-05-05 08:42 20.74405 134.12479 36976 ft 507 kts 70°
2026-05-05 08:42 20.76649 134.19626 36976 ft 507 kts 70°
2026-05-05 08:43 20.78889 134.26772 36981 ft 507 kts 70°
2026-05-05 08:43 20.81144 134.33978 36981 ft 507 kts 70°
2026-05-05 08:44 20.83363 134.41080 36983 ft 507 kts 70°
2026-05-05 08:44 20.85597 134.48241 36981 ft 508 kts 70°
2026-05-05 08:45 20.87829 134.55407 36983 ft 508 kts 70°
2026-05-05 08:45 20.90059 134.62580 36985 ft 508 kts 70°
2026-05-05 08:46 20.92284 134.69746 36983 ft 508 kts 71°
2026-05-05 08:46 20.94507 134.76922 36984 ft 508 kts 71°
2026-05-05 08:47 20.96724 134.84087 36987 ft 508 kts 71°
2026-05-05 08:47 21.00080 134.90515 36991 ft 498 kts 41°
2026-05-05 08:47 21.01876 134.92105 36995 ft 494 kts 30°
2026-05-05 08:48 21.04897 134.93813 36999 ft 490 kts 19°
2026-05-05 08:48 21.08159 134.94847 36985 ft 486 kts
2026-05-05 08:48 21.11504 134.95050 37016 ft 480 kts 357°
2026-05-05 08:49 21.18185 134.95000 36999 ft 484 kts 356°
2026-05-05 08:49 21.24948 134.94956 37000 ft 488 kts 357°
2026-05-05 08:50 21.31764 134.94982 36997 ft 490 kts 357°
2026-05-05 08:50 21.38591 134.95045 36995 ft 491 kts 358°
2026-05-05 08:51 21.45425 134.95114 36997 ft 491 kts 358°
2026-05-05 08:51 21.52246 134.95180 36997 ft 489 kts 357°
2026-05-05 08:52 21.59048 134.95243 36999 ft 488 kts 357°
2026-05-05 08:52 21.65789 134.95304 37001 ft 487 kts 357°
2026-05-05 08:53 21.72571 134.95366 36999 ft 486 kts 357°
2026-05-05 08:53 21.79343 134.95428 37001 ft 486 kts 357°
2026-05-05 08:54 21.86113 134.95489 37004 ft 486 kts 357°
2026-05-05 08:54 21.92839 134.95551 37003 ft 486 kts 357°
2026-05-05 08:55 21.99625 134.95613 37004 ft 487 kts 357°
2026-05-05 08:55 22.06414 134.95675 37007 ft 488 kts 357°
2026-05-05 08:56 22.13211 134.95737 37007 ft 488 kts 357°
2026-05-05 08:56 22.19967 134.95799 37007 ft 489 kts 357°
2026-05-05 08:57 22.26775 134.95861 37008 ft 489 kts 357°
2026-05-05 08:57 22.33591 134.95924 37005 ft 490 kts 357°
2026-05-05 08:58 22.40415 134.95987 37007 ft 490 kts 357°
2026-05-05 08:58 22.47228 134.96050 37011 ft 490 kts 357°
2026-05-05 08:59 22.54050 134.96113 37011 ft 490 kts 357°
2026-05-05 08:59 22.60869 134.96175 37016 ft 490 kts 357°
2026-05-05 09:00 22.67660 134.96238 37012 ft 490 kts 357°
2026-05-05 09:00 22.74487 134.96301 37013 ft 490 kts 357°
2026-05-05 09:01 22.81320 134.96364 37018 ft 490 kts 357°
2026-05-05 09:01 22.88114 134.96427 37016 ft 490 kts 357°
2026-05-05 09:02 22.94932 134.96490 37021 ft 490 kts 356°
2026-05-05 09:02 23.01755 134.96554 37021 ft 490 kts 356°
2026-05-05 09:03 23.08577 134.96617 37018 ft 490 kts 356°
2026-05-05 09:03 23.15411 134.96680 37018 ft 490 kts 356°
2026-05-05 09:04 23.22193 134.96744 37023 ft 490 kts 356°
2026-05-05 09:04 23.29025 134.96807 37024 ft 490 kts 356°
2026-05-05 09:05 23.35853 134.96871 37025 ft 490 kts 356°
2026-05-05 09:05 23.42684 134.96935 37031 ft 490 kts 356°
2026-05-05 09:06 23.49505 134.96999 37039 ft 490 kts 356°
2026-05-05 09:06 23.56324 134.97062 37027 ft 489 kts 356°
2026-05-05 09:07 23.63091 134.97126 37028 ft 489 kts 355°
2026-05-05 09:07 23.69896 134.97190 37032 ft 488 kts 355°
2026-05-05 09:08 23.76687 134.97253 37024 ft 488 kts 355°
2026-05-05 09:08 23.83476 134.97317 37038 ft 487 kts 355°
2026-05-05 09:09 23.90252 134.97381 37026 ft 487 kts 355°
2026-05-05 09:09 23.97032 134.97444 37032 ft 487 kts 355°
2026-05-05 09:10 24.03819 134.97508 37037 ft 487 kts 355°
2026-05-05 09:10 24.10561 134.97571 37036 ft 488 kts 355°
2026-05-05 09:11 24.17357 134.97635 37040 ft 489 kts 355°
2026-05-05 09:11 24.24172 134.97699 37040 ft 489 kts 355°
2026-05-05 09:12 24.30995 134.97764 37041 ft 490 kts 355°
2026-05-05 09:12 24.37813 134.97829 37038 ft 490 kts 355°
2026-05-05 09:13 24.44640 134.97894 37041 ft 490 kts 355°
2026-05-05 09:13 24.51466 134.97959 37043 ft 491 kts 355°
2026-05-05 09:14 24.58292 134.98024 37042 ft 490 kts 355°
2026-05-05 09:14 24.65066 134.98088 37040 ft 490 kts 355°
2026-05-05 09:15 24.71886 134.98153 37043 ft 490 kts 355°
2026-05-05 09:15 24.78704 134.98218 37047 ft 490 kts 355°
2026-05-05 09:16 24.85523 134.98283 37048 ft 489 kts 355°
2026-05-05 09:16 24.92335 134.98348 37049 ft 489 kts 355°